sat.trackr.live / text

‹ back to catalog

STARLINK-33891

NORAD 63827 · 2025-092Z

PAYLOAD ACTIVE UNKNOWN

§ Identity

Operator
Country
US
Launch date
2025-05-04
Launch site
AFETR
Launch vehicle
Mass (kg)
RCS (m²)

Purposes: comms

External: N2YO · Heavens-Above · Gunter

§ Orbital elements

Epoch: 2026-05-25T03:34:56.471808Z

Period
94.27 min
Inclination
43.0007°
Eccentricity
0.0001151
Mean motion
15.27597191 rev/d
Perigee alt
482.2 km
Apogee alt
483.8 km
Semi-major
6,861.1 km
B*
6.8402e-4
RAAN
101.1224°
Arg perigee
272.3099°
Mean anomaly
87.7621°
Rev number
6,024

§ Raw data

STARLINK-338911 63827U 25092Z   26145.14926472  .00018618  00000+0  68402-3 0  99932 63827  43.0007 101.1224 0001151 272.3099  87.7621 15.27597191 60243

JSON: /api/v1/satellites/63827 · /tle

For live sub-satellite position, see the globe view (requires WebGL).

§ Visibility from observer

Set your observer location to see the next 7 days of passes ≥ 10°. The values pass through the URL so the page stays shareable.

No JS? Fill the form by hand. The geolocation button needs JavaScript.